Orbital Elements at Epoch 2459200.5 (2020-Dec-17.0) TDB
Reference: JPL 25 (heliocentric ecliptic J2000)
Element | Value | Uncertainty (1-sigma) | Units |
e | .2123199116363303 | 4.6478e-08 | |
a | 2.69791729411401 | 1.461e-08 | au |
q | 2.125095732625596 | 1.2387e-07 | au |
i | 7.065062931234123 | 4.4819e-06 | deg |
node | 112.891481354912 | 4.874e-05 | deg |
peri | 303.9072773425787 | 5.0304e-05 | deg |
M | 264.12870658207 | 1.5795e-05 | deg |
tp | 2459631.549812710533 (2022-Feb-21.04981271) | 7.3334e-05 | TDB |
period | 1618.606853454324 4.43 | 1.3148e-05 3.6e-08 | d yr |
n | .2224134904851736 | 1.8067e-09 | deg/d |
Q | 3.270738855602424 | 1.7712e-08 | au |
|
| | Orbit Determination Parameters
Additional Information
|